sat.trackr.live / text

‹ back to catalog

STARLINK-6153

NORAD 56384 · 2023-061L

PAYLOAD ACTIVE UNKNOWN

§ Identity

Operator
Country
US
Launch date
2023-05-04
Launch site
AFETR
Launch vehicle
Mass (kg)
RCS (m²)

Purposes: comms

External: N2YO · Heavens-Above · Gunter

§ Orbital elements

Epoch: 2026-09-20T04:28:34.818240Z

Period
94.27 min
Inclination
43.0011°
Eccentricity
0.0001138
Mean motion
15.27576557 rev/d
Perigee alt
482.3 km
Apogee alt
483.8 km
Semi-major
6,861.2 km
B*
-3.8303e-6
RAAN
179.6351°
Arg perigee
259.2437°
Mean anomaly
100.8287°
Rev number
18,649

§ Raw data

STARLINK-61531 56384U 23061L   26263.18651410 -.00000367  00000+0 -38303-5 0  99922 56384  43.0011 179.6351 0001138 259.2437 100.8287 15.27576557186498

JSON: /api/v1/satellites/56384 · /tle

For live sub-satellite position, see the globe view (requires WebGL).

§ Visibility from observer

Set your observer location to see the next 7 days of passes ≥ 10°. The values pass through the URL so the page stays shareable.

No JS? Fill the form by hand. The geolocation button needs JavaScript.